Weather History for Culdrose, United Kingdom

Change the Weather History Date:

Saturday, November 16, 2013

  Actual Average Record
Temperature  
Mean Temperature 45 °F -  
Max Temperature 50 °F 49 °F 59 °F (1997)
Min Temperature 40 °F 41 °F 32 °F (1998)
Degree Days  
Heating Degree Days 20    
Moisture  
Dew Point 43 °F    
Average Humidity 82    
Maximum Humidity 93    
Minimum Humidity 69    
Precipitation  
Precipitation 0.00 in - - ()
Sea Level Pressure  
Sea Level Pressure 30.48 in    
Wind  
Wind Speed 4 mph ()    
Max Wind Speed 8 mph    
Max Gust Speed -    
Visibility 7.3 miles    
Events      
Averages and records for this station are not official NWS values.
T = Trace of Precipitation, MM = Missing Value Source: Averaged Metar Reports

Daily Weather History Graph

Daily Weather History Graph

Search for Another Location

Airport:

Trip Planner

Search our weather history database for the weather conditions in past years. The results will help you decide how hot, cold, wet, or windy it might be!

Date:

Astronomy

Nov. 16, 2013 Rise Set
Actual Time 7:35 AM GMT 4:35 PM GMT
Civil Twilight 7:00 AM GMT 5:11 PM GMT
Nautical Twilight 6:20 AM GMT 5:50 PM GMT
Astronomical Twilight 5:42 AM GMT 6:28 PM GMT
Moon 4:06 PM GMT (11/16) 6:11 AM GMT (11/16)
Length of Visible Light 10h 10m
Length of Day
8h 59m
Waxing Gibbous, 99% of the Moon is Illuminated
Nov 16
Waxing Gibbous
Nov 17
Full
Nov 25
Last Quarter
Dec 3
New
Dec 9
First Quarter

Hourly Weather History & Observations

Time (GMT) Temp. Windchill Dew Point Humidity Pressure Visibility Wind Dir Wind Speed Gust Speed Precip Events Conditions
12:00 AM 46 °F - 43 °F 84% 30.55 in 9 mi ENE 4.6 mph - -   Haze
12:50 AM 46.4 °F 44.3 °F 42.8 °F 87% 30.51 in 6.2 mi East 4.6 mph - N/A   Overcast
1:50 AM 44.6 °F 42.2 °F 42.8 °F 93% 30.51 in 6.2 mi ENE 4.6 mph - N/A   Mostly Cloudy
2:50 AM 42.8 °F 38.6 °F 39.2 °F 87% 30.51 in 6.2 mi East 6.9 mph - N/A   Mostly Cloudy
3:00 AM 42 °F - 40 °F 88% 30.53 in 11 mi East 6.9 mph - -   Haze
3:50 AM 42.8 °F 38.6 °F 39.2 °F 87% 30.51 in 6.2 mi East 6.9 mph - N/A   Mostly Cloudy
4:50 AM 44.6 °F 41.4 °F 41.0 °F 87% 30.51 in 6.2 mi ESE 5.8 mph - N/A   Mostly Cloudy
5:50 AM 46.4 °F 45.2 °F 41.0 °F 81% 30.51 in 6.2 mi East 3.5 mph - N/A   Overcast
6:00 AM 47 °F - 40 °F 69% 30.52 in 11 mi East 3.5 mph - -   Haze
6:50 AM 44.6 °F 42.2 °F 41.0 °F 87% 30.51 in 6.2 mi East 4.6 mph - N/A   Mostly Cloudy
7:50 AM 46.4 °F - 41.0 °F 81% 30.51 in 6.2 mi ESE 1.2 mph - N/A   Haze
8:50 AM 46.4 °F - 42.8 °F 87% 30.51 in 6.2 mi ESE 2.3 mph - N/A   Haze
9:00 AM 47 °F - 43 °F 81% 30.54 in 11 mi ESE 2.3 mph - -   Haze
9:50 AM 48.2 °F - 41.0 °F 76% 30.51 in 6.2 mi SSE 3.5 mph - N/A   Haze
10:50 AM 50.0 °F - 42.8 °F 76% 30.51 in 6.2 mi Calm Calm - N/A   Haze
11:50 AM 50.0 °F - 42.8 °F 76% 30.51 in 6.2 mi West 2.3 mph - N/A   Haze
12:00 PM 50 °F - 43 °F 69% 30.52 in 11 mi West 2.3 mph - -   Haze
12:50 PM 50.0 °F - 42.8 °F 76% 30.48 in 6.2 mi West 3.5 mph - N/A   Haze
1:50 PM 50.0 °F - 44.6 °F 82% 30.48 in 6.2 mi West 4.6 mph - N/A   Overcast
2:50 PM 50.0 °F - 44.6 °F 82% 30.45 in 6.2 mi NW 4.6 mph - N/A   Haze
3:00 PM 50 °F - 45 °F 78% 30.47 in 11 mi NW 4.6 mph - -   Haze
3:50 PM 50.0 °F - 46.4 °F 87% 30.45 in 6.2 mi NNW 4.6 mph - N/A   Haze
4:50 PM 50.0 °F - 46.4 °F 87% 30.45 in 6.2 mi NNW 8.1 mph - N/A   Haze
5:50 PM 50.0 °F - 46.4 °F 87% 30.45 in 6.2 mi North 4.6 mph - N/A   Haze
6:00 PM 50 °F - 46 °F 82% 30.46 in 11 mi North 4.6 mph - -   Haze
6:50 PM 50.0 °F - 44.6 °F 82% 30.45 in 6.2 mi North 4.6 mph - N/A   Haze
7:50 PM 50.0 °F - 42.8 °F 76% 30.42 in 6.2 mi North 6.9 mph - N/A   Haze
8:50 PM 48.2 °F - 42.8 °F 82% 30.42 in 6.2 mi North 4.6 mph - N/A   Haze
9:00 PM 49 °F - 43 °F 74% 30.45 in 11 mi North 4.6 mph - -   Haze
9:50 PM 48.2 °F - 42.8 °F 82% 30.42 in 6.2 mi ENE 3.5 mph - N/A   Overcast
10:50 PM 48.2 °F - 44.6 °F 87% 30.42 in 6.2 mi NNE 3.5 mph - N/A   Overcast
11:50 PM 48.2 °F - 44.6 °F 87% 30.39 in 6.2 mi NNW 3.5 mph - N/A   Light Drizzle